Tracking 34408 objects as of 14-Jun-2026
HD Live streaming from Space Station
objects crossing your sky now

STARLINK-11111

Track STARLINK-11111 now!
10-day predictions
STARLINK-11111 is classified as:


NORAD ID: 59764
Int'l Code: 2024-091M
Perigee: 335.4 km
Apogee: 342.1 km
Inclination: 53.1 °
Period: 91.2 minutes
Semi major axis: 6709 km
RCS: Unknown
Launch date: May 14, 2024
Source: United States (US)
Launch site: AIR FORCE WESTERN TEST RANGE (AFWTR)
Your satellite tracking list
Your tracking list is empty




NASA's NSSDC Master Catalog

Two Line Element Set (TLE):
1 59764U 24091M   26165.16668980  .00098048  00000-0  52415-3 0  9990
2 59764  53.1473  88.3333 0005041  97.7503  43.8004 15.79591133  6037
Source of the keplerian elements: AFSPC